Find Starlink 2499

NORAD ID: 48377 Int'l Des: 2021-038 Owner: SPXS Country: US Constellation: starlink operational
LEOCIRCULAR

リアルタイム位置

3D地球を読み込み中...

Starlink 2499について

説明を読み込み中...

次回通過

Passes for default location (London). Set your location on the main map for personalized predictions.

高度履歴

Loading altitude history...

軌道要素

1 48377U 21038AA 26106.49798811 .00082784 00000-0 27436-2 0 9998
2 48377 53.1596 172.1826 0001623 42.2990 317.8136 15.30582295273017
Epoch: Apr 16, 2026 • Age: 18 hours

現在のステータス

高度 492.6 km
速度 7.62 km/s
衛星直下点 -51.91°S, 120.4°E
打ち上げ日 May 4, 2021
運用期間 4.9 years
タイプ internet

技術仕様

分類 Payload
質量 260.00 kg
乾燥質量 248.00 kg
総質量 260.00 kg
長さ 0.20 m
直径 2.80 m
スパン 9.00 m
形状 Box + pan
製造者 SPXS
バスタイプ Starlink
フェーズステータス In Orbit
所有者/国 SPXS/US

Most Searched